This is the latest recevied weather packets stored in our database for station/object W9ESR. If no packets are shown the sender has not sent any weather packets the latest 1 day(s).
| Time | Temp. | Humidity | Pressure | Rain* | Wind** | Luminosity | Snow |
|---|---|---|---|---|---|---|---|
| 1777992062 | 10° C | 59% | - | 0 mm | 0.89 m/s, 302° | - | - |
| 1777991759 | 10° C | 59% | - | 0 mm | 1.79 m/s, 343° | - | - |
| 1777991456 | 10° C | 60% | - | 0 mm | 2.24 m/s, 339° | - | - |
| 1777991153 | 10° C | 59% | - | 0 mm | 2.24 m/s, 11° | - | - |
| 1777990850 | 9.44° C | 62% | - | 0 mm | 3.13 m/s, 7° | - | - |
| 1777990548 | 9.44° C | 64% | - | 0 mm | 1.34 m/s, 11° | - | - |
| 1777990245 | 9.44° C | 64% | - | 0 mm | 1.79 m/s, 6° | - | - |
| 1777989941 | 9.44° C | 64% | - | 0 mm | 2.68 m/s, 11° | - | - |
| 1777989638 | 9.44° C | 64% | - | 0 mm | 3.13 m/s, 357° | - | - |
| 1777989334 | 9.44° C | 66% | - | 0 mm | 2.24 m/s, 350° | - | - |
| 1777989031 | 9.44° C | 66% | - | 0 mm | 1.34 m/s, 351° | - | - |
| 1777988727 | 9.44° C | 67% | - | 0 mm | 1.34 m/s, 329° | - | - |
| 1777988424 | 9.44° C | 69% | - | 0 mm | 1.34 m/s, 355° | - | - |
| 1777988121 | 9.44° C | 70% | - | 0 mm | 0.89 m/s, 330° | - | - |
| 1777987817 | 8.89° C | 73% | - | 0 mm | 0.89 m/s, 308° | - | - |
| 1777987514 | 8.89° C | 74% | - | 0 mm | 0 m/s | - | - |
| 1777987212 | 8.89° C | 73% | - | 0 mm | 0.45 m/s, 268° | - | - |
| 1777986908 | 8.89° C | 71% | - | 0 mm | 0.45 m/s, 274° | - | - |
| 1777986606 | 8.89° C | 72% | - | 0 mm | 0.45 m/s, 268° | - | - |
| 1777986304 | 8.89° C | 73% | - | 0 mm | 0 m/s | - | - |
| 1777986002 | 8.89° C | 70% | - | 0 mm | 0.45 m/s, 267° | - | - |
| 1777985698 | 8.89° C | 70% | - | 0 mm | 0.45 m/s, 266° | - | - |
| 1777985394 | 8.89° C | 70% | - | 0 mm | 0.45 m/s, 266° | - | - |
| 1777985091 | 8.89° C | 71% | - | 0 mm | 0.45 m/s, 268° | - | - |
| 1777984788 | 8.89° C | 71% | - | 0 mm | 0.45 m/s, 271° | - | - |
* Rain latest hour (hover to see other rain measurements)
** Current wind speed in m/s (hover to see current wind gust speed)